Location: Unspecified
(40.7945°N, 0.0000°E)
Time: 02:32:35
(UTC+00:00)

Altair - Pass Details

Date: 22 January 2021
Orbit: 1501 x 1682 km, 47.2° (Epoch: 01 March)

Event Time Altitude Azimuth Distance (km) Brightness Sun altitude
Rises 07:52:29 0° 269° (W) 4,908 9.6 4.9°
Reaches altitude 10° 07:55:43 10° 273° (W) 3,932 9.1 5.4°
Maximum altitude 08:05:46 62° 353° (N) 1,857 7.9 7.0°
Drops below altitude 10° 08:15:48 10° 74° (ENE) 3,920 10.3 8.6°
Sets 08:19:00 0° 78° (ENE) 4,892 10.8 9.0°
